DW7465 Weather Reports


time (UTC)temp
C
wind
direction
speed
KPH
gust
KPH
rain 1hr
cm
rain 24hr
cm
rain mn
cm
humidity
%
barometer
mb
20260503211549 26 0 3.2 14.5 0.00 0.00 0.00 42 1012.0
20260503210047 26 0 1.6 9.7 0.00 0.00 0.00 39 1012.2
20260503204554 26 0 0.0 14.5 0.00 0.00 0.00 45 1012.2
20260503203049 26 0 0.0 4.8 0.00 0.00 0.00 43 1012.3
20260503201545 25 96 0.0 8.0 0.00 0.00 0.00 47 1012.5
20260503200044 25 338 1.6 6.4 0.00 0.00 0.00 42 1012.7
20260503194549 25 0 0.0 6.4 0.00 0.00 0.00 44 1012.9
20260503193106 25 0 0.0 9.7 0.00 0.00 0.00 50 1013.1
20260503191550 25 90 0.0 4.8 0.00 0.00 0.00 48 1013.2
20260503190059 24 0 0.0 6.4 0.00 0.00 0.00 50 1013.5
20260503184545 23 0 0.0 4.8 0.00 0.00 0.00 52 1013.5
20260503183058 22 0 1.6 11.3 0.00 0.00 0.00 51 1013.7
20260503181548 22 0 1.6 6.4 0.00 0.00 0.00 54 1013.8
20260503180055 22 0 1.6 8.0 0.00 0.00 0.00 52 1013.7
20260503174546 22 0 1.6 11.3 0.00 0.00 0.00 57 1013.8
20260503173108 21 0 0.0 8.0 0.00 0.00 0.00 56 1014.0
20260503171552 21 307 0.0 6.4 0.00 0.00 0.00 56 1014.1
20260503081548 10 0 0.0 0.0 0.00 0.00 0.00 86 1014.5
20260503071550 11 0 0.0 0.0 0.00 0.00 0.00 85 1014.3
20260503054546 13 0 0.0 0.0 0.00 0.00 0.00 75 1014.4
20260503053047 13 0 0.0 0.0 0.00 0.00 0.00 73 1014.2
20260503051550 14 0 0.0 0.0 0.00 0.00 0.00 71 1014.1
20260503050046 14 0 0.0 0.0 0.00 0.00 0.00 70 1014.0
20260503044548 15 0 0.0 0.0 0.00 0.00 0.00 69 1014.0
20260503043048 15 0 0.0 0.0 0.00 0.00 0.00 67 1014.0
20260503041545 16 0 0.0 0.0 0.00 0.00 0.00 64 1013.7
20260503040050 16 0 0.0 0.0 0.00 0.00 0.00 63 1013.5
20260503034549 16 0 0.0 0.0 0.00 0.00 0.00 61 1013.4
20260503033046 17 0 0.0 0.0 0.00 0.00 0.00 59 1013.2
20260503031545 18 0 0.0 4.8 0.00 0.00 0.00 57 1013.3
20260503030046 18 0 0.0 3.2 0.00 0.00 0.00 56 1013.1
20260503024545 19 0 0.0 11.3 0.00 0.00 0.00 55 1013.0
20260503023046 20 0 0.0 4.8 0.00 0.00 0.00 57 1012.9
20260503021551 20 0 0.0 4.8 0.00 0.00 0.00 55 1013.0
20260503020054 21 0 0.0 16.1 0.00 0.00 0.00 55 1012.9
20260503014617 21 0 1.6 17.7 0.00 0.00 0.00 55 1013.0
20260503013046 21 0 1.6 11.3 0.00 0.00 0.00 55 1013.1
20260503011553 21 323 3.2 12.9 0.00 0.00 0.00 55 1013.2
20260503010052 21 0 1.6 14.5 0.00 0.00 0.00 55 1013.2
20260503004556 22 0 0.0 8.0 0.00 0.00 0.00 55 1013.2
20260503003045 22 0 1.6 16.1 0.00 0.00 0.00 55 1013.2
20260503001559 22 0 6.4 16.1 0.00 0.00 0.00 55 1013.2
20260503000100 23 0 0.0 4.8 0.00 0.00 0.00 53 1013.2
20260502234546 25 0 0.0 9.7 0.00 0.00 0.00 52 1013.4
20260502233047 25 0 1.6 11.3 0.00 0.00 0.00 51 1013.6
20260502231544 25 0 0.0 14.5 0.00 0.00 0.00 52 1013.7
20260502230044 24 0 1.6 17.7 0.00 0.00 0.00 54 1014.1
20260502224600 23 0 3.2 14.5 0.00 0.00 0.00 56 1014.2
20260502223044 23 0 1.6 11.3 0.00 0.00 0.00 54 1014.5
20260502221544 23 320 3.2 17.7 0.00 0.00 0.00 55 1014.7
20260502220048 23 296 3.2 16.1 0.00 0.00 0.00 53 1014.9
20260502214546 23 339 0.0 16.1 0.00 0.00 0.00 54 1015.0
20260502213048 23 0 1.6 14.5 0.00 0.00 0.00 51 1015.2